Flag for U.S.A. Weather past 2 weeks in Rapid City, South Dakota, U.S.A.

Now
37 °F

Clear.


Feels Like: 33 °F
Forecast: 43 / 67 °F
Wind: 5 mph from Northwest

Location: Ellsworth Air Force Base


UV Index: 5 (Moderate)

Visibility: 10 mi


Pressure: 30.22 "Hg

Humidity: 52%

Dew point: 21 °F

Location of Rapid CityLocation

Historic Weather in Rapid City

°F

Rapid City temperature yesterday

Maximum temperature yesterday: 71 °F (at 12:58 PM)
Minimum temperature yesterday: 44 °F (at 5:58 AM)
Average temperature yesterday: 56 °F

Past Weeks' High & Low Weather Summary

 TemperatureHumidityPressure
High77 °F (Apr 9, 2:58 PM)93% (Apr 16, 12:58 AM)30.39 "Hg (Apr 16, 12:58 AM)
Low20 °F (Apr 14, 3:58 AM)15% (Apr 9, 2:58 PM)29.55 "Hg (Apr 15, 7:58 PM)
Average47 °F52%29.95 "Hg
* Reported Apr 6 4:58 AM — Apr 21 4:58 AM, Rapid City, Weather by CustomWeather, © 2014

Note: Actual official high and low records may vary slightly from our data, if they occured in-between our weather recording intervals... More about our weather records

Advertising

Historic Weather Conditions — Data for Previous 24 hours

 ConditionsComfort  
Time TempWeatherWind HumidityBarometerVisibility
4:58 AM
Apr 21
38 °FClear.10 mph49%30.21 "Hg10 mi
3:58 AM36 °FClear.12 mph53%30.21 "Hg10 mi
2:58 AM39 °FClear.9 mph48%30.19 "Hg10 mi
1:58 AM49 °FClear.10 mph31%30.16 "Hg10 mi
12:58 AM46 °FClear.15 mph41%30.14 "Hg10 mi
11:58 PM
Apr 20
52 °FClear.13 mph32%30.12 "Hg10 mi
10:58 PM48 °FClear.12 mph41%30.11 "Hg10 mi
9:58 PM53 °FClear.10 mph37%30.09 "Hg10 mi
8:58 PM55 °FClear.12 mph38%30.06 "Hg10 mi
7:58 PM59 °FSunny.15 mph34%30.03 "Hg10 mi
6:58 PM64 °FSunny.17 mph27%30.02 "Hg10 mi
5:58 PM66 °FSunny.28 mph26%29.98 "Hg10 mi
4:58 PM65 °FPassing clouds.28 mph26%29.98 "Hg10 mi
3:58 PM66 °FSunny.31 mph27%29.95 "Hg10 mi
2:58 PM67 °FScattered clouds.26 mph29%29.94 "Hg10 mi
1:58 PM70 °FBroken clouds.14 mph35%29.93 "Hg10 mi
12:58 PM71 °FScattered clouds.9 mph34%29.91 "Hg10 mi
11:58 AM69 °FSunny.10 mph36%29.90 "Hg10 mi
10:58 AM64 °FSunny.7 mph40%29.92 "Hg10 mi
9:58 AM61 °FSunny.10 mph43%29.91 "Hg10 mi
8:58 AM56 °FSunny.10 mph49%29.91 "Hg10 mi
7:58 AM49 °FSunny.1 mph54%29.92 "Hg10 mi
6:58 AM44 °FClear.3 mph60%29.91 "Hg10 mi
Weather by CustomWeather, © 2014

See weather overview